Date,TemperatureHighF,TemperatureAvgF,TemperatureLowF,DewpointHighF,DewpointAvgF,DewpointLowF,HumidityHigh,HumidityAvg,HumidityLow,PressureMaxIn,PressureMinIn,WindSpeedMaxMPH,WindSpeedAvgMPH,GustSpeedMaxMPH,PrecipitationSumIn
2014-1-1,34,27,20,25,19,12,84,73,62,30.43,30.24,3,1,5,0.00
2014-1-2,28,21,14,22,17,12,91,84,78,30.24,29.74,6,4,10,0.00
2014-1-3,16,12,-1,14,8,-5,92,85,73,30.51,29.72,6,2,11,0.00
2014-1-4,24,9,-4,16,5,-8,90,82,65,30.56,30.33,4,0,6,0.01
2014-1-5,46,19,1,45,17,-2,98,92,83,30.36,29.72,3,1,4,0.09
2014-1-6,57,38,10,56,31,-6,99,77,42,29.88,29.36,7,3,15,0.44
2014-1-7,9,6,1,-2,-8,-14,65,53,45,30.42,29.88,5,3,10,0.00
2014-1-8,21,14,6,18,4,-3,88,65,52,30.60,30.42,4,1,6,0.00
2014-1-9,32,22,14,25,14,8,92,73,47,30.69,30.52,3,0,5,0.00
2014-1-10,35,29,22,33,26,18,97,88,79,30.59,30.20,1,0,2,0.08
2014-1-11,60,46,33,59,45,33,99,97,87,30.20,29.31,5,1,12,0.71
2014-1-12,47,40,30,43,32,27,90,73,61,30.08,29.44,3,2,6,0.01
2014-1-13,52,39,25,38,32,24,96,79,56,30.15,29.87,3,0,7,0.00
2014-1-14,48,43,36,45,41,36,98,92,68,29.88,29.69,1,0,3,0.34
2014-1-15,39,35,29,39,34,29,99,98,97,30.01,29.88,2,0,2,0.01
2014-1-16,37,33,27,36,32,26,99,95,84,29.98,29.86,2,0,3,0.02
2014-1-17,40,30,22,32,27,21,96,89,67,30.00,29.88,2,0,4,0.00
2014-1-18,36,30,23,32,26,16,97,84,69,29.92,29.74,3,1,4,0.10
2014-1-19,32,25,19,25,19,14,92,78,71,29.89,29.68,4,2,6,0.00
2014-1-20,39,33,26,32,27,18,92,79,68,29.93,29.62,3,1,8,0.00
2014-1-21,27,18,11,18,13,4,91,79,61,30.03,29.88,6,3,8,0.00
2014-1-22,16,8,2,4,-1,-7,81,65,52,30.07,29.88,5,2,17,0.00
2014-1-23,21,10,0,10,3,-4,93,74,53,30.34,30.06,4,1,6,0.00
2014-1-24,20,13,6,6,2,-1,84,61,46,30.46,30.06,4,2,6,0.00
2014-1-25,22,19,15,20,13,3,92,77,56,30.06,29.46,4,2,7,0.00
2014-1-26,24,19,13,20,9,0,92,64,49,29.95,29.52,5,2,7,0.00
2014-1-27,37,24,18,29,14,2,92,66,38,30.14,29.65,5,1,10,0.03
2014-1-28,18,13,10,5,0,-5,71,56,42,30.43,30.14,3,1,5,0.00
2014-1-29,22,14,8,8,1,-5,72,55,37,30.34,30.14,4,1,6,0.00
2014-1-30,27,14,1,12,5,-3,88,67,44,30.51,30.20,3,1,5,0.00
2014-1-31,32,25,14,27,17,9,90,71,59,30.25,30.14,3,0,5,0.01
2014-2-1,45,33,21,30,24,18,92,73,44,30.36,30.03,3,0,4,0.06
2014-2-2,44,36,25,37,31,23,94,85,74,30.12,29.94,2,0,3,0.00
2014-2-3,39,31,18,33,29,16,96,91,76,30.35,30.10,3,0,4,0.00
2014-2-4,32,21,6,26,17,4,94,85,68,30.51,30.25,2,0,3,0.07
2014-2-5,33,30,26,32,28,22,97,94,80,30.27,29.67,4,1,6,0.01
2014-2-6,29,23,17,23,18,13,94,81,68,30.35,30.04,3,0,5,0.00
2014-2-7,31,23,13,20,16,11,94,78,57,30.36,30.24,4,1,6,0.00
2014-2-8,28,20,10,24,9,6,85,63,44,30.37,30.18,4,1,5,0.00
2014-2-9,28,20,11,22,15,8,93,80,54,30.24,30.02,3,0,4,0.00
2014-2-10,29,20,8,19,11,3,94,70,45,30.32,30.04,4,1,7,0.00
2014-2-11,25,13,-1,10,4,-4,90,69,44,30.52,30.32,3,1,6,0.00
2014-2-12,24,14,0,15,6,-4,90,71,49,30.61,30.31,3,1,4,0.00
2014-2-13,33,26,18,32,24,15,97,94,83,30.31,29.14,8,4,14,0.00
2014-2-14,38,33,23,30,28,20,97,80,67,29.79,29.15,5,2,10,0.00
2014-2-15,34,29,22,31,26,15,95,86,66,29.86,29.64,5,2,13,0.00
2014-2-16,28,22,17,16,13,9,73,66,53,30.19,29.85,4,2,11,0.00
2014-2-17,31,21,9,16,9,4,83,63,34,30.44,30.19,4,1,7,0.03
2014-2-18,36,28,18,30,23,13,93,83,66,30.33,29.99,5,1,7,0.13
2014-2-19,42,29,17,37,27,15,96,92,77,30.11,29.72,3,1,4,0.30
2014-2-20,48,37,21,35,29,19,95,73,47,30.29,30.02,3,1,4,0.11
2014-2-21,44,37,28,43,36,27,98,96,84,30.02,29.64,3,1,7,0.17
2014-2-22,51,36,23,34,26,22,98,74,37,30.07,29.94,5,1,7,0.01
2014-2-23,49,37,23,33,28,21,95,74,49,30.06,29.87,3,1,4,0.00
2014-2-24,39,33,26,32,19,11,81,58,42,30.12,29.86,5,2,9,0.00
2014-2-25,31,25,17,20,15,11,88,66,52,30.12,29.97,4,1,9,0.00
2014-2-26,30,21,10,22,11,1,93,66,33,30.00,29.86,5,1,9,0.00
2014-2-27,29,16,4,15,5,-8,88,62,35,30.17,29.67,6,2,11,0.00
2014-2-28,22,13,5,19,-1,-8,87,54,40,30.45,30.17,4,1,11,0.00
2014-3-1,34,21,5,22,11,1,89,67,42,30.45,30.17,3,0,4,0.00
2014-3-2,40,32,26,28,22,15,79,66,58,30.17,30.02,3,1,7,0.00
2014-3-3,28,20,13,15,5,0,69,54,44,30.38,30.06,7,3,9,0.00
2014-3-4,28,19,7,19,7,-1,82,60,40,30.46,30.27,3,1,4,0.00
2014-3-5,37,28,22,22,14,10,90,57,35,30.48,30.23,5,2,10,0.00
2014-3-6,31,22,14,14,6,-1,68,50,30,30.66,30.48,6,2,8,0.00
2014-3-7,40,30,19,28,21,12,80,68,60,30.50,29.96,3,1,7,0.00
2014-3-8,54,40,24,35,30,22,94,70,48,29.96,29.82,4,1,6,0.00
2014-3-9,44,38,34,32,23,14,76,56,30,30.07,29.93,3,1,8,0.00
2014-3-10,50,40,34,33,28,22,86,62,47,29.97,29.62,4,1,5,0.00
2014-3-11,61,44,30,41,35,28,93,73,46,29.71,29.59,4,1,5,0.00
2014-3-12,52,41,26,42,36,18,97,83,60,29.68,29.03,6,1,8,0.38
2014-3-13,27,22,17,17,5,0,72,50,33,30.13,29.33,6,4,16,0.00
2014-3-14,45,31,15,28,16,1,86,56,36,30.24,29.88,5,1,7,0.00
2014-3-15,57,48,41,35,29,25,65,49,35,30.03,29.76,5,2,9,0.00
2014-3-16,40,32,27,26,13,5,61,45,34,30.23,30.04,6,2,10,0.00
2014-3-17,33,27,21,16,5,0,62,40,24,30.16,30.05,6,3,9,0.00
2014-3-18,46,32,21,21,12,6,73,46,22,30.30,30.13,4,1,9,0.00
2014-3-19,40,34,24,37,30,20,97,86,75,30.31,29.85,4,1,8,0.63
2014-3-20,51,42,37,42,33,22,98,73,41,29.94,29.77,4,2,10,0.02
2014-3-21,52,42,30,26,24,21,82,50,32,30.06,29.93,4,2,7,0.00
2014-3-22,63,45,29,40,30,24,85,60,28,30.04,29.79,4,1,10,0.00
2014-3-23,40,36,25,28,19,9,69,50,33,30.19,30.01,5,2,10,0.00
2014-3-24,34,26,19,15,8,5,68,46,31,30.30,30.13,6,2,8,0.00
2014-3-25,38,29,18,24,17,12,82,62,38,30.18,29.88,4,1,5,0.00
2014-3-26,33,30,24,25,13,5,78,51,32,30.29,29.83,7,3,14,0.00
2014-3-27,44,31,18,24,12,7,75,47,28,30.44,30.25,4,1,7,0.00
2014-3-28,55,42,31,51,38,22,97,84,56,30.24,29.96,2,0,4,0.08
2014-3-29,47,44,36,46,42,35,98,94,82,30.20,29.67,5,2,7,1.09
2014-3-30,47,43,38,46,41,34,97,91,83,29.73,29.53,7,4,12,0.40
2014-3-31,54,44,36,36,33,31,89,68,46,30.11,29.74,6,4,11,0.05
2014-4-1,60,46,29,38,33,27,93,64,38,30.17,29.96,3,1,5,0.00
2014-4-2,58,45,38,46,39,35,93,81,57,30.15,30.03,2,0,4,0.00
2014-4-3,66,52,38,45,33,24,95,54,21,30.17,29.96,4,1,8,0.04
2014-4-4,47,42,41,45,40,39,96,93,87,30.06,29.77,5,2,9,0.23
2014-4-5,52,44,38,41,34,25,97,70,45,30.11,29.75,5,2,10,0.00
2014-4-6,60,45,30,31,25,20,82,50,23,30.23,30.11,4,1,6,0.00
2014-4-7,51,41,31,45,35,23,97,81,34,30.20,29.67,6,1,8,0.35
2014-4-8,62,52,46,55,44,36,99,76,49,29.67,29.43,5,2,15,0.21
2014-4-9,60,48,32,41,32,27,96,60,29,30.04,29.66,7,2,8,0.00
2014-4-10,66,50,28,38,32,25,92,56,33,30.22,30.01,6,2,11,0.00
2014-4-11,72,57,46,55,46,38,96,70,46,30.03,29.94,3,1,8,0.07
2014-4-12,73,56,39,51,44,38,98,68,32,30.25,30.03,4,1,7,0.01
2014-4-13,81,63,45,57,51,40,88,66,38,30.18,29.93,8,2,11,0.00
2014-4-14,76,69,62,59,57,55,85,66,49,29.98,29.80,7,3,19,0.00
2014-4-15,67,56,34,64,53,32,97,90,74,29.96,29.50,6,2,9,1.32
2014-4-16,45,36,28,32,21,17,91,56,35,30.59,29.97,6,3,12,0.00
2014-4-17,54,40,28,32,26,22,87,62,33,30.73,30.59,4,1,9,0.00
2014-4-18,54,43,32,36,33,30,92,69,46,30.63,30.26,3,1,5,0.00
2014-4-19,65,52,36,41,31,23,93,53,21,30.36,30.24,6,2,15,0.00
2014-4-20,62,50,38,35,31,28,80,52,31,30.48,30.34,4,1,9,0.00
2014-4-21,71,51,30,36,28,19,92,50,15,30.34,29.86,3,1,7,0.00
2014-4-22,70,55,42,54,46,35,87,72,45,29.86,29.52,3,1,7,0.00
2014-4-23,58,50,43,49,38,30,87,62,47,29.90,29.54,5,3,12,0.00
2014-4-24,60,49,38,30,21,11,62,36,16,30.06,29.90,6,2,14,0.00
2014-4-25,69,52,35,45,30,21,94,49,21,30.06,29.78,4,1,8,0.33
2014-4-26,70,55,45,51,44,37,97,70,37,29.91,29.69,6,2,13,0.16
2014-4-27,60,51,41,39,36,34,83,58,41,30.15,29.91,6,2,10,0.00
2014-4-28,67,52,34,42,36,32,94,60,30,30.17,30.00,4,1,8,0.00
2014-4-29,54,47,42,43,41,39,92,80,61,30.40,30.08,7,3,12,0.22
2014-4-30,52,46,41,51,44,39,97,95,91,30.40,29.94,7,3,9,2.51
2014-5-1,76,61,51,62,54,48,99,82,45,29.94,29.68,4,1,8,0.31
2014-5-2,66,56,49,49,46,40,92,70,41,29.79,29.75,3,1,6,0.00
2014-5-12,62,62,61,59,58,58,90,89,88,30.06,30.05,0,0,8,0.00
2014-5-13,74,63,54,63,52,40,97,69,43,30.26,30.02,4,1,7,0.00
2014-5-14,75,61,51,62,53,41,94,76,60,30.31,30.18,3,1,7,0.00
2014-5-15,80,69,60,70,65,59,98,87,70,30.22,30.02,4,1,7,0.02
2014-5-16,70,66,56,67,63,55,98,93,85,30.02,29.77,4,1,10,1.58
2014-5-17,68,57,48,55,47,42,99,72,43,30.15,29.87,2,0,5,0.00
2014-5-18,66,54,42,48,42,37,97,67,37,30.22,30.14,3,1,5,0.00
2014-5-19,72,55,38,50,42,35,97,68,27,30.26,30.09,4,1,4,0.00
2014-5-20,79,61,42,55,46,38,98,65,23,30.19,29.99,3,0,5,0.00
2014-5-21,71,64,57,60,56,53,93,78,56,30.03,29.89,1,0,3,0.01
2014-5-22,76,65,59,67,61,58,97,88,66,29.89,29.74,3,0,4,0.11
2014-5-23,71,61,53,60,56,52,98,84,56,29.98,29.83,3,0,4,0.04
2014-5-24,74,62,53,59,55,51,96,80,49,30.10,29.96,4,0,5,0.05
2014-5-25,83,65,50,61,51,42,99,67,26,30.12,30.01,3,0,8,0.00
2014-5-26,89,70,52,59,55,50,96,63,29,30.08,29.89,2,0,4,0.00
2014-5-27,86,72,60,70,63,57,93,73,50,29.91,29.77,2,0,6,0.01
2014-5-28,69,63,56,67,60,51,97,90,83,30.15,29.78,3,1,7,0.00
2014-5-29,65,57,52,54,50,47,85,77,63,30.23,30.13,1,0,3,0.00
2014-5-30,79,66,54,57,52,47,90,64,37,30.16,29.99,3,1,4,0.00
2014-5-31,76,62,48,54,48,42,97,65,32,30.28,30.09,5,1,8,0.00
2014-6-1,79,64,47,57,51,46,97,67,40,30.38,30.22,2,0,4,0.00
2014-6-2,84,68,48,62,55,46,96,67,43,30.26,30.00,2,0,5,0.00
2014-6-3,91,73,58,71,64,56,96,76,45,30.03,29.79,2,0,8,0.00
2014-6-4,87,73,59,64,58,52,97,64,35,29.87,29.74,2,0,5,0.00
2014-6-5,78,67,59,64,58,52,98,76,42,29.82,29.66,2,0,6,1.00
2014-6-6,76,66,56,56,53,50,91,65,47,29.97,29.81,2,1,4,0.00
2014-6-7,84,68,50,60,55,49,98,69,39,30.02,29.91,3,1,7,0.00
2014-6-8,87,71,53,63,58,52,97,67,37,29.97,29.83,2,0,4,0.00
2014-6-9,72,67,62,67,64,57,98,90,60,29.95,29.87,1,0,3,0.71
2014-6-10,76,70,65,71,67,64,97,91,81,29.97,29.91,2,0,3,0.00
2014-6-11,69,66,62,68,63,60,97,91,84,30.09,29.96,2,0,6,0.01
2014-6-12,70,65,60,69,64,59,97,95,91,30.08,29.89,2,0,7,0.03
2014-6-13,84,71,66,75,69,66,99,94,67,29.89,29.71,4,0,4,1.59
2014-6-14,73,65,56,66,58,50,99,79,59,30.07,29.80,2,0,7,0.01
2014-6-15,82,67,51,60,55,50,98,71,44,30.14,30.05,2,0,5,0.00
2014-6-16,88,71,53,67,60,52,98,73,41,30.17,30.00,1,0,5,0.00
2014-6-17,93,80,66,73,69,64,96,71,48,30.07,29.87,1,0,3,0.00
2014-6-18,92,82,70,72,67,63,89,64,40,29.95,29.82,3,0,5,0.00
2014-6-19,75,70,62,70,67,58,95,89,79,30.01,29.92,1,0,3,0.04
2014-6-20,82,68,50,59,53,49,96,63,33,30.05,29.90,2,0,7,0.00
2014-6-21,82,69,53,60,54,49,89,61,39,29.98,29.85,2,0,4,0.00
2014-6-22,83,71,57,64,60,55,94,69,45,30.02,29.90,1,0,3,0.00
2014-6-23,83,71,56,66,61,55,96,73,54,30.12,30.02,2,0,5,0.00
2014-6-24,84,73,59,68,62,55,91,70,55,30.14,29.97,2,0,6,0.00
2014-6-25,89,77,66,75,69,63,96,79,60,29.99,29.78,2,0,5,0.41
2014-6-26,84,75,68,71,68,66,98,81,59,29.97,29.81,2,0,5,0.13
2014-6-27,85,74,63,69,64,60,98,75,47,30.19,29.97,2,0,3,0.00
2014-6-28,88,74,58,68,62,57,96,70,41,30.28,30.18,1,0,3,0.00
2014-6-29,88,75,62,68,64,60,96,71,46,30.24,30.07,2,0,5,0.00
2014-6-30,87,75,64,70,65,60,90,74,51,30.10,29.90,1,0,5,0.00
2014-7-1,92,80,66,75,71,65,97,76,53,29.94,29.78,3,0,7,0.00
2014-7-2,94,80,72,80,74,70,97,84,62,29.91,29.78,3,0,5,0.17
2014-7-3,90,77,69,78,73,68,99,88,65,29.97,29.82,3,0,4,0.33
2014-7-4,73,68,63,69,62,52,98,85,55,30.07,29.94,3,0,5,0.17
2014-7-5,83,70,56,59,54,51,87,60,35,30.18,30.07,3,0,6,0.00
2014-7-6,87,72,54,63,59,53,97,68,39,30.11,29.91,2,0,6,0.00
2014-7-7,92,80,69,71,67,63,89,68,46,29.91,29.71,3,1,5,0.07
2014-7-8,92,78,67,76,70,66,99,79,49,29.81,29.61,2,0,5,0.05
2014-7-9,89,74,66,73,68,64,98,83,49,29.99,29.75,3,0,5,0.77
2014-7-10,84,71,64,70,66,64,99,88,56,30.13,29.96,3,0,4,0.38
2014-7-11,85,73,63,68,65,61,98,78,49,30.21,30.12,2,0,3,0.00
2014-7-12,88,74,61,72,67,60,99,79,55,30.22,30.07,1,0,4,0.00
2014-7-13,88,77,68,75,71,65,96,81,66,30.09,29.84,4,0,5,0.53
2014-7-14,83,74,70,76,72,69,99,93,75,29.91,29.79,2,0,2,0.45
2014-7-15,82,75,72,76,73,71,99,94,77,29.81,29.70,1,0,2,0.10
2014-7-16,84,73,63,72,63,54,98,75,37,29.89,29.73,2,0,3,0.21
2014-7-17,82,68,58,64,60,56,98,78,42,30.11,29.89,1,0,2,0.00
2014-7-18,81,67,54,66,59,53,98,77,44,30.25,30.11,2,0,3,0.00
2014-7-19,82,70,61,66,61,55,96,75,46,30.23,30.15,2,0,6,0.00
2014-7-20,83,71,62,66,63,61,97,78,49,30.17,30.07,2,0,5,0.05
2014-7-21,87,72,60,68,64,59,98,78,46,30.20,30.11,1,0,2,0.00
2014-7-22,88,76,63,73,69,62,98,81,58,30.18,30.02,1,0,3,0.00
2014-7-23,92,78,66,78,71,65,97,82,59,30.02,29.74,4,0,5,0.27
2014-7-24,82,71,62,70,62,57,98,75,46,29.93,29.82,3,0,7,0.00
2014-7-25,83,69,53,63,58,52,97,71,44,30.05,29.94,2,0,5,0.00
2014-7-26,84,70,58,67,62,58,98,79,48,30.00,29.86,1,0,2,0.00
2014-7-27,87,76,66,73,69,64,98,80,51,29.88,29.63,2,0,3,0.34
2014-7-28,81,71,64,69,65,58,98,83,56,29.75,29.51,4,0,4,0.11
2014-7-29,77,66,56,59,56,52,95,74,45,29.99,29.74,2,0,3,0.00
2014-7-30,80,65,50,60,56,50,98,75,44,30.06,29.98,1,0,4,0.00
2014-7-31,84,70,58,65,61,56,97,76,49,30.13,30.04,2,0,5,0.00
2014-8-1,87,70,60,73,65,59,98,85,57,30.19,30.12,4,0,5,0.00
2014-8-2,81,72,65,67,65,63,97,81,59,30.18,30.06,2,0,4,0.00
2014-8-3,77,70,65,68,66,64,97,86,71,30.11,30.01,2,0,3,0.00
2014-8-4,86,73,65,68,66,63,97,80,52,30.07,30.00,2,0,5,0.00
2014-8-5,90,73,59,71,65,58,98,77,42,30.06,29.89,1,0,5,0.02
2014-8-6,84,72,61,65,62,57,97,74,43,29.93,29.83,2,0,4,0.00
2014-8-7,82,67,54,61,56,52,97,73,38,30.03,29.91,3,0,5,0.00
2014-8-8,83,68,51,62,57,50,98,71,41,30.12,30.03,2,0,4,0.00
2014-8-9,85,70,53,64,58,52,98,71,38,30.15,30.05,2,0,5,0.00
2014-8-10,89,71,56,65,59,55,97,70,34,30.16,30.05,2,0,4,0.00
2014-8-11,88,72,59,67,61,58,97,71,39,30.14,30.04,2,0,5,0.00
2014-8-12,75,70,67,71,67,64,93,89,81,30.06,29.81,3,1,8,0.12
2014-8-13,84,73,66,71,67,59,98,83,56,29.81,29.65,4,0,7,0.25
2014-8-14,77,67,56,60,56,53,93,70,47,29.90,29.80,2,0,5,0.00
2014-8-15,74,62,49,60,54,48,98,76,49,29.99,29.90,2,0,5,0.00
2014-8-16,78,64,50,60,54,49,99,74,42,30.03,29.91,1,0,5,0.00
2014-8-17,82,68,58,66,59,56,98,76,48,29.92,29.82,2,0,5,0.03
2014-8-18,81,67,52,62,58,51,98,75,43,29.95,29.81,2,0,4,0.00
2014-8-19,85,69,53,65,59,52,98,74,44,29.92,29.84,2,0,3,0.00
2014-8-20,86,75,63,68,65,61,97,72,53,30.00,29.91,2,0,6,0.00
2014-8-21,82,73,65,71,66,62,97,81,64,30.04,29.94,4,0,6,0.95
2014-8-22,74,68,65,69,66,62,98,91,79,30.04,29.97,2,0,5,0.09
2014-8-23,70,66,63,67,64,61,97,93,87,30.11,30.01,1,0,1,0.16
2014-8-24,82,70,60,65,62,59,99,78,45,30.16,30.08,2,0,5,0.00
2014-8-25,86,69,56,67,62,55,99,80,48,30.20,30.10,2,0,3,0.00
2014-8-26,89,72,59,68,64,58,98,78,46,30.17,30.04,1,0,2,0.00
2014-8-27,90,75,60,73,67,59,99,80,54,30.06,29.84,1,0,1,0.00
2014-8-28,79,71,59,70,57,50,86,63,44,30.08,29.86,3,1,5,0.00
2014-8-29,78,64,50,61,55,48,97,75,48,30.23,30.08,2,0,4,0.00
2014-8-30,77,67,53,67,61,52,98,81,66,30.27,30.12,1,0,5,0.00
2014-8-31,89,75,69,77,70,65,94,85,62,30.13,29.93,1,0,4,0.01
2014-9-1,87,78,71,75,72,70,97,84,63,30.00,29.89,2,0,3,0.00
2014-9-2,90,78,67,76,71,66,98,80,55,29.92,29.77,2,0,5,0.00
2014-9-3,84,73,63,70,64,61,97,75,49,30.11,29.83,2,0,5,0.00
2014-9-4,88,71,56,68,62,55,98,76,46,30.19,30.08,1,0,3,0.00
2014-9-5,84,73,63,76,69,61,96,86,74,30.16,29.99,2,0,4,0.00
2014-9-6,91,75,63,77,71,62,99,86,59,29.99,29.81,2,0,6,0.24
2014-9-7,80,68,57,62,58,50,98,75,40,30.19,29.95,3,0,5,0.12
2014-9-8,76,63,52,62,56,51,98,80,54,30.31,30.20,3,0,6,0.01
2014-9-9,74,64,54,62,58,53,97,83,62,30.28,30.14,2,1,4,0.00
2014-9-10,80,70,63,64,62,60,92,75,52,30.14,29.99,2,0,3,0.00
2014-9-11,81,72,66,72,67,59,94,84,71,29.99,29.81,2,0,6,0.01
2014-9-12,76,65,54,59,53,50,86,68,48,30.20,29.97,3,1,6,0.00
2014-9-13,60,56,50,60,54,48,98,94,86,30.20,30.10,1,0,3,0.18
2014-9-14,69,56,45,54,49,44,99,82,46,30.32,30.18,2,0,4,0.14
2014-9-15,70,56,42,54,48,42,98,79,45,30.27,30.07,2,0,4,0.00
2014-9-16,71,58,50,60,53,49,98,84,59,30.07,29.98,2,0,4,0.15
2014-9-17,74,56,45,56,48,44,99,78,39,30.09,29.96,2,0,4,0.01
2014-9-18,75,58,44,55,50,43,98,79,44,30.14,29.98,1,0,4,0.00
2014-9-19,68,56,48,52,49,46,97,79,54,30.36,30.14,3,1,4,0.00
2014-9-20,78,64,52,62,57,50,95,80,55,30.33,30.06,3,0,6,0.00
2014-9-21,80,68,59,66,61,57,96,82,50,30.07,29.60,1,0,2,0.01
2014-9-22,68,60,46,65,52,43,96,75,51,30.20,29.65,3,1,7,0.01
2014-9-23,72,54,39,53,46,38,98,77,42,30.41,30.20,2,0,4,0.00
2014-9-24,73,59,46,57,52,44,98,80,53,30.56,30.41,3,0,5,0.00
2014-9-25,62,58,53,59,55,52,96,92,84,30.47,30.24,2,0,4,0.06
2014-9-26,77,60,47,59,54,47,99,82,48,30.27,30.16,3,0,5,0.00
2014-9-27,83,62,47,62,54,46,99,79,38,30.26,30.16,1,0,3,0.10
2014-9-28,86,65,50,64,57,49,99,78,41,30.20,30.01,1,0,3,0.00
2014-9-29,79,65,56,64,60,56,98,85,52,30.01,29.89,0,0,0,0.00